[[{"header":{"parameterUnit":"m.s-1","parameterCategory":2,"la1":30.2991,"la2":30.254,"lo1":-89.0895,"lo2":-89.0444,"dy":0.0017,"dx":0.0017,"nx":28,"ny":28,"refTime":"2024-04-22T03:00:00:Z","depth":"0","parameterNumber":2,"parameterNumberName":"U-component_of_CURRENTS"},"data":[0,0,0,0,0,0,0,0,0,0,0,0,0,0,0,0,0,0,0,0,0,0,0,0,0,0,0,0,0,0,0,0,0,0,0,0,0,0,0,0,0,0,0,0,0,0,0,0,0,0,0,0,0,0,0,0,0,0,0.1875,0.1876,0,0.1892,0.1892,0.1892,0.1891,0.1891,0.1891,0.1891,0.1876,0.1875,0.1875,0,0,0,0,0,0,0,0,0,0,0,0,0,0.185,0.185,0.1875,0.1876,0.1876,0.1892,0.1892,0.1892,0.1891,0.1891,0.1891,0.1891,0.1876,0.1875,0.1875,0,0,0,0,0,0,0,0,0,0,0,0,0,0.1861,0.1851,0.1875,0.1879,0.188,0.1891,0.1892,0.1892,0.1891,0.1891,0.1891,0.1891,0.1876,0.1875,0.1875,0.1873,0,0,0.1873,0.1873,0,0,0,0,0,0,0,0,0.1861,0.1862,0.1878,0.1879,0.188,0.1891,0.1877,0.1885,0.1891,0.1885,0.1891,0.1891,0.1879,0.1878,0.1879,0.1873,0.1872,0.1873,0.1873,0.1873,0.1873,0,0,0,0,0,0,0,0.186,0.1861,0.188,0.1879,0.1879,0.1882,0.1883,0.1879,0.188,0.1885,0.1886,0.189,0.1879,0.188,0.1879,0.1872,0.1873,0.1873,0.1873,0.1872,0.1908,0.1909,0,0,0,0,0,0,0.1862,0.1861,0.1879,0.1881,0.1872,0.1883,0.1884,0.1886,0.1881,0.1881,0.189,0.189,0.1881,0.188,0.1878,0.1915,0.1873,0.1872,0.1872,0.1907,0.1908,0.191,0,0,0,0,0,0,0.1861,0.1863,0.1879,0.1873,0.1875,0.1883,0.1885,0.1886,0.1891,0.1886,0.1885,0.1895,0.1881,0.1879,0.1891,0.1913,0.1872,0.1872,0.1905,0.1907,0.1909,0.1964,0,0,0,0,0,0,0.186,0.1862,0.1863,0.1873,0.1876,0.1894,0.1886,0.1887,0.1895,0.1895,0.1889,0.1887,0.188,0.1892,0.1891,0.1912,0.1871,0.1904,0.1906,0.1909,0.196,0.1967,0.1973,0,0,0,0,0,0.1859,0.1862,0.1863,0.1865,0.1876,0.1895,0.1897,0.1901,0.1895,0.1903,0.1905,0.1888,0.1906,0.1893,0.1891,0.1912,0.1903,0.1906,0.1908,0.1958,0.1966,0.1973,0,0,0,0,0,0,0.1852,0.1863,0.1864,0.187,0.1885,0.1896,0.1901,0.1904,0.1911,0.1909,0.1901,0.19,0.1921,0.1909,0.1894,0.1931,0.1903,0.1905,0.1941,0.1949,0.1955,0.1958,0.1871,0,0,0,0,0,0.1851,0.1856,0.187,0.1877,0.1883,0.1892,0.1899,0.1904,0.1913,0.1915,0.1916,0.1919,0.193,0.1933,0.1937,0.1952,0.1968,0.1966,0.1973,0.1978,0.1981,0.2021,0.2032,0.1919,0.1919,0.1919,0,0,0.1849,0.1858,0.1859,0.1876,0.1884,0.1905,0.1896,0.191,0.193,0.1912,0.1936,0.1939,0.194,0.1964,0.1972,0.1957,0.2026,0.1982,0.1986,0.1986,0.2026,0.2037,0.2046,0.1921,0.1921,0.192,0,0,0.1857,0.1857,0.1868,0.1882,0.1901,0.1912,0.1918,0.1935,0.1944,0.1967,0.1967,0.1985,0.1993,0.2007,0.2012,0.2055,0.2059,0.2056,0.209,0.213,0.214,0.2148,0.2214,0.2228,0.2059,0.2059,0.2059,0,0.1859,0.187,0.1875,0.1894,0.1909,0.1918,0.1939,0.1955,0.1976,0.1992,0.1981,0.202,0.2016,0.2057,0.2075,0.2069,0.2102,0.206,0.2139,0.2147,0.2155,0.222,0.2235,0.2062,0.2062,0.2061,0.2061,0,0.1877,0.1888,0.1897,0.1925,0.1943,0.1961,0.1986,0.2009,0.202,0.2036,0.2076,0.208,0.2106,0.211,0.2103,0.2161,0.2172,0.2144,0.2119,0.217,0.2235,0.225,0.2066,0.2065,0.2064,0.2064,0,0,0.1878,0.1905,0.1908,0.1923,0.1959,0.1976,0.2018,0.2058,0.209,0.211,0.2153,0.2175,0.218,0.2187,0.2188,0.2216,0.2306,0.2206,0.2207,0.2273,0.2425,0.2484,0.2505,0.2294,0.2296,0.2298,0.2461,0,0.1893,0.1924,0.1939,0.1977,0.1994,0.2022,0.2063,0.2101,0.2132,0.2178,0.2194,0.2231,0.221,0.2229,0.2258,0.2293,0.2341,0.2266,0.2365,0.2369,0.2414,0.2522,0.2468,0.2612,0.2474,0.2477,0.2478,0,0.1907,0.1927,0.1956,0.2001,0.2013,0.2042,0.2107,0.2147,0.2212,0.2236,0.2279,0.2296,0.2357,0.2317,0.242,0.2377,0.241,0.2429,0.2436,0.2476,0.2453,0.2533,0.2643,0.2565,0.25,0.2498,0.2497,0,0.1895,0.194,0.1961,0.1975,0.2029,0.2055,0.2095,0.2162,0.2205,0.2279,0.2323,0.2383,0.2433,0.2474,0.2536,0.2484,0.2651,0.2582,0.2671,0.2676,0.2642,0.2641,0.2684,0.2655,0.2654,0.2654,0.2653,0,0.1896,0.1914,0.1956,0.1964,0.2003,0.2053,0.2106,0.2154,0.2237,0.2299,0.2354,0.2428,0.2473,0.2571,0.2591,0.2715,0.271,0.2714,0.2731,0.2664,0.2663,0.2601,0.2552,0.266,0.2659,0.2657,0.2656,0,0.1866,0.1893,0.1918,0.1973,0.199,0.2019,0.2098,0.2146,0.2236,0.2324,0.2356,0.2491,0.2638,0.2708,0.2808,0.2815,0.2838,0.293,0.2872,0.2879,0.286,0.2817,0.2802,0.2714,0.3051,0.3054,0.3056,0,0.1849,0.1855,0.1902,0.1917,0.1936,0.1987,0.2025,0.2121,0.2178,0.2367,0.2413,0.26,0.2719,0.2934,0.3006,0.3111,0.2961,0.3093,0.2971,0.2896,0.2858,0.271,0.2623,0.2959,0.296,0.2961,0.2961,0,0.1806,0.182,0.1835,0.1867,0.1899,0.1938,0.2005,0.2053,0.2188,0.2282,0.2441,0.2564,0.2836,0.2954,0.3134,0.317,0.2963,0.3118,0.3038,0.2812,0.2652,0.2563,0.283,0.297,0.2969,0.2969,0.2968,0.2968,0.1766,0.176,0.1779,0.1807,0.1843,0.1879,0.1895,0.1995,0.2083,0.2233,0.2399,0.257,0.2825,0.3092,0.3117,0.3148,0.3067,0.305,0.3017,0.2883,0.2752,0.3071,0.3223,0.3224,0.3225,0.3225,0.3225,0,0.1709,0.1703,0.1722,0.1743,0.1755,0.18,0.1868,0.1891,0.1972,0.2163,0.2302,0.2584,0.2763,0.2933,0.3104,0.3044,0.2855,0.296,0.27,0.2625,0.2927,0.2874,0.2959,0.2959,0.2959,0.2959,0.2959,0.2959,0.1678,0.1656,0.1665,0.1648,0.1665,0.1658,0.1682,0.1743,0.1856,0.2036,0.2203,0.2394,0.272,0.2966,0.2988,0.292,0.2661,0.2607,0.2534,0.2722,0.2724,0.2726,0.2663,0.2702,0.2702,0.2117,0.2113,0.211]},{"header":{"parameterUnit":"m.s-1","parameterCategory":2,"la1":30.2991,"la2":30.254,"lo1":-89.0895,"lo2":-89.0444,"dy":0.0017,"dx":0.0017,"nx":28,"ny":28,"refTime":"2024-04-22T03:00:00:Z","depth":"0","parameterNumber":3,"parameterNumberName":"V-component_of_CURRENTS"},"data":[0,0,0,0,0,0,0,0,0,0,0,0,0,0,0,0,0,0,0,0,0,0,0,0,0,0,0,0,0,0,0,0,0,0,0,0,0,0,0,0,0,0,0,0,0,0,0,0,0,0,0,0,0,0,0,0,0,0,-0.0572,-0.0572,0,-0.0591,-0.0592,-0.0592,-0.0632,-0.0633,-0.0633,-0.0634,-0.0711,-0.0713,-0.0714,0,0,0,0,0,0,0,0,0,0,0,0,0,-0.0535,-0.0536,-0.0572,-0.0572,-0.0572,-0.0591,-0.0592,-0.0592,-0.0632,-0.0633,-0.0634,-0.0634,-0.0711,-0.0712,-0.0714,0,0,0,0,0,0,0,0,0,0,0,0,0,-0.0554,-0.0536,-0.0572,-0.0593,-0.0595,-0.0591,-0.0592,-0.0592,-0.0632,-0.0633,-0.0634,-0.0635,-0.071,-0.0712,-0.0714,-0.0708,0,0,-0.0721,-0.0722,0,0,0,0,0,0,0,0,-0.0553,-0.0556,-0.059,-0.0592,-0.0594,-0.0609,-0.0607,-0.0633,-0.0631,-0.0619,-0.0634,-0.0635,-0.0681,-0.0685,-0.0688,-0.0712,-0.0715,-0.0721,-0.0722,-0.0723,-0.0724,0,0,0,0,0,0,0,-0.0552,-0.0555,-0.0581,-0.059,-0.0592,-0.059,-0.0594,-0.0612,-0.0647,-0.0621,-0.0623,-0.0623,-0.0683,-0.0686,-0.069,-0.0716,-0.0721,-0.0723,-0.0724,-0.0725,-0.0769,-0.0768,0,0,0,0,0,0,-0.0547,-0.0554,-0.0581,-0.0582,-0.0574,-0.059,-0.0595,-0.0604,-0.0645,-0.0651,-0.0622,-0.0624,-0.0682,-0.0688,-0.0693,-0.0709,-0.0723,-0.0725,-0.0727,-0.0769,-0.0769,-0.0768,0,0,0,0,0,0,-0.0546,-0.055,-0.058,-0.0566,-0.057,-0.0589,-0.06,-0.0604,-0.0608,-0.0645,-0.0653,-0.0621,-0.0683,-0.069,-0.0715,-0.0712,-0.0726,-0.0728,-0.0769,-0.0769,-0.0768,-0.0727,0,0,0,0,0,0,-0.0545,-0.055,-0.0549,-0.0566,-0.057,-0.057,-0.0599,-0.0604,-0.0605,-0.0609,-0.0647,-0.0655,-0.0684,-0.0712,-0.0717,-0.0715,-0.073,-0.0769,-0.0769,-0.0769,-0.0728,-0.0725,-0.0723,0,0,0,0,0,-0.0544,-0.0531,-0.0549,-0.0552,-0.0571,-0.0568,-0.057,-0.0588,-0.0604,-0.0597,-0.0634,-0.0654,-0.0714,-0.0713,-0.072,-0.0718,-0.0769,-0.0769,-0.0769,-0.073,-0.0726,-0.0723,0,0,0,0,0,0,-0.0505,-0.0535,-0.0554,-0.055,-0.0558,-0.0575,-0.0564,-0.0581,-0.0602,-0.061,-0.0652,-0.0662,-0.0685,-0.0704,-0.0702,-0.073,-0.0745,-0.0746,-0.0713,-0.071,-0.0707,-0.0685,-0.0732,0,0,0,0,0,-0.0499,-0.0506,-0.0527,-0.0523,-0.0525,-0.0546,-0.0545,-0.056,-0.0581,-0.0591,-0.0619,-0.0653,-0.0686,-0.07,-0.0727,-0.0737,-0.075,-0.074,-0.0737,-0.0735,-0.0721,-0.0754,-0.0752,-0.0767,-0.0767,-0.0767,0,0,-0.0482,-0.0499,-0.0502,-0.0516,-0.0525,-0.0515,-0.0548,-0.0542,-0.0541,-0.0596,-0.0602,-0.0643,-0.0688,-0.0707,-0.0718,-0.0723,-0.0734,-0.0734,-0.0732,-0.072,-0.0753,-0.0752,-0.075,-0.0767,-0.0767,-0.0767,0,0,-0.0439,-0.0467,-0.0453,-0.0459,-0.0468,-0.0485,-0.0481,-0.0498,-0.0513,-0.0525,-0.0573,-0.0611,-0.0643,-0.0682,-0.0706,-0.07,-0.072,-0.0707,-0.0671,-0.0703,-0.0702,-0.0701,-0.0699,-0.0699,-0.0702,-0.0702,-0.0702,0,-0.0414,-0.0408,-0.0443,-0.0427,-0.0425,-0.0468,-0.0444,-0.0463,-0.0487,-0.0498,-0.052,-0.0588,-0.0632,-0.0667,-0.0673,-0.0693,-0.0701,-0.0682,-0.0698,-0.0698,-0.0698,-0.0697,-0.0697,-0.07,-0.07,-0.0701,-0.0701,0,-0.0364,-0.0355,-0.0342,-0.0349,-0.0351,-0.0337,-0.0369,-0.0378,-0.0407,-0.0432,-0.0468,-0.0534,-0.0572,-0.06,-0.0637,-0.066,-0.0661,-0.0694,-0.0705,-0.0694,-0.0693,-0.0694,-0.0697,-0.0698,-0.0698,-0.0699,0,0,-0.032,-0.0309,-0.0305,-0.0289,-0.031,-0.0302,-0.0308,-0.0322,-0.0317,-0.0369,-0.0368,-0.0455,-0.0494,-0.0523,-0.0581,-0.0616,-0.0631,-0.0647,-0.065,-0.064,-0.0671,-0.0634,-0.0631,-0.0667,-0.0667,-0.0668,-0.0665,0,-0.0268,-0.0213,-0.0233,-0.0188,-0.0162,-0.0207,-0.0202,-0.0228,-0.0261,-0.0272,-0.0359,-0.0384,-0.0464,-0.0481,-0.0533,-0.0605,-0.0633,-0.0626,-0.0688,-0.0689,-0.0654,-0.0631,-0.0623,-0.0618,-0.0666,-0.0666,-0.0666,0,-0.0213,-0.0185,-0.0123,-0.0101,-0.0095,-0.008,-0.0084,-0.0087,-0.0131,-0.016,-0.0215,-0.0273,-0.0342,-0.0407,-0.052,-0.051,-0.0581,-0.064,-0.0642,-0.062,-0.0653,-0.0641,-0.0617,-0.079,-0.0668,-0.0668,-0.0668,0,-0.0155,-0.0111,-0.0058,-0.0051,-0.0034,-0.0017,-0.0018,-0.0046,-0.0031,-0.0084,-0.0075,-0.018,-0.0203,-0.0326,-0.0449,-0.0484,-0.0553,-0.062,-0.065,-0.0647,-0.0657,-0.0655,-0.0803,-0.069,-0.069,-0.069,-0.069,0,-0.009,-0.005,-0.002,0.0012,0.0072,0.0053,0.0108,0.0081,0.0078,0.0123,-0.0007,0.0016,-0.0183,-0.0247,-0.0394,-0.0498,-0.051,-0.0625,-0.0644,-0.064,-0.0636,-0.0801,-0.0889,-0.069,-0.069,-0.069,-0.069,0,-0.0025,-0.0009,0.0059,0.0096,0.0109,0.0156,0.0201,0.0243,0.0215,0.0274,0.0268,0.018,0.01,-0.008,-0.0249,-0.039,-0.0604,-0.0557,-0.0517,-0.0531,-0.0735,-0.082,-0.0943,-0.1014,-0.0599,-0.0598,-0.0597,0,0.0014,0.0062,0.013,0.0181,0.0206,0.0268,0.0317,0.0309,0.0368,0.0394,0.0443,0.0384,0.0377,0.0143,-0.0122,-0.0345,-0.0532,-0.0494,-0.0576,-0.0726,-0.0836,-0.0907,-0.0964,-0.0572,-0.0571,-0.057,-0.057,0,0.0101,0.0129,0.019,0.0292,0.036,0.0435,0.0511,0.0579,0.0602,0.0654,0.0735,0.0736,0.0527,0.0316,0.0003,-0.0188,-0.0607,-0.0483,-0.0671,-0.084,-0.0896,-0.0979,-0.0576,-0.0563,-0.0563,-0.0564,-0.0564,-0.0565,0.0166,0.0235,0.0323,0.042,0.0499,0.0607,0.0692,0.0786,0.0898,0.1007,0.0982,0.1008,0.0673,0.0248,-0.0013,-0.0518,-0.0536,-0.0702,-0.0791,-0.0849,-0.0925,-0.0475,-0.0466,-0.0466,-0.0466,-0.0466,-0.0466,0,0.0262,0.0342,0.0443,0.0567,0.0674,0.0686,0.0829,0.0923,0.1086,0.118,0.1254,0.1097,0.0686,0.0228,-0.0419,-0.0776,-0.0942,-0.0991,-0.1135,-0.1181,-0.0814,-0.0823,-0.085,-0.085,-0.085,-0.085,-0.085,-0.0849,0.0323,0.0448,0.0506,0.0704,0.0786,0.0934,0.1024,0.1155,0.1251,0.1378,0.1395,0.1372,0.1013,-0.0131,-0.0955,-0.1158,-0.1417,-0.1451,-0.1584,-0.139,-0.1373,-0.1356,-0.1388,-0.1533,-0.1534,-0.193,-0.1934,-0.1937]}],[{"header":{"parameterUnit":"m.s-1","parameterCategory":2,"la1":30.2991,"la2":30.254,"lo1":-89.0895,"lo2":-89.0444,"dy":0.0017,"dx":0.0017,"nx":28,"ny":28,"refTime":"2024-04-22T03:00:00:Z","depth":"2","parameterNumber":2,"parameterNumberName":"U-component_of_CURRENTS"},"data":[0,0,0,0,0,0,0,0,0,0,0,0,0,0,0,0,0,0,0,0,0,0,0,0,0,0,0,0,0,0,0,0,0,0,0,0,0,0,0,0,0,0,0,0,0,0,0,0,0,0,0,0,0,0,0,0,0,0,0.1772,0.1772,0,0.1802,0.1802,0.1803,0.1819,0.1819,0.1819,0.1819,0.1815,0.1815,0.1814,0,0,0,0,0,0,0,0,0,0,0,0,0,0.1732,0.1732,0.1772,0.1772,0.1773,0.1802,0.1802,0.1803,0.1819,0.1819,0.1819,0.1819,0.1815,0.1815,0.1814,0,0,0,0,0,0,0,0,0,0,0,0,0,0.1755,0.1733,0.1772,0.1784,0.1785,0.1802,0.1802,0.1803,0.1819,0.1819,0.1819,0.1819,0.1815,0.1815,0.1814,0.1814,0,0,0.1814,0.1814,0,0,0,0,0,0,0,0,0.1753,0.1756,0.1782,0.1783,0.1784,0.1806,0.1787,0.1805,0.1819,0.1807,0.1819,0.1819,0.1808,0.1809,0.1816,0.1814,0.1814,0.1814,0.1814,0.1814,0.1814,0,0,0,0,0,0,0,0.1752,0.1755,0.1785,0.1782,0.1784,0.1788,0.1792,0.179,0.1807,0.1808,0.1809,0.1811,0.1809,0.1816,0.1816,0.1814,0.1814,0.1814,0.1814,0.1814,0.1861,0.1862,0,0,0,0,0,0,0.1747,0.1754,0.1784,0.1785,0.1768,0.1789,0.1793,0.18,0.1808,0.1809,0.1811,0.1812,0.1816,0.1816,0.1815,0.1858,0.1814,0.1814,0.1814,0.1859,0.1861,0.1862,0,0,0,0,0,0,0.1746,0.1749,0.1782,0.1769,0.1774,0.179,0.1797,0.18,0.1815,0.1811,0.1812,0.1823,0.1816,0.1816,0.1832,0.1856,0.1814,0.1814,0.1858,0.186,0.1862,0.1916,0,0,0,0,0,0,0.1745,0.1749,0.1751,0.1769,0.1774,0.18,0.1797,0.1801,0.1815,0.1816,0.1821,0.182,0.1816,0.1832,0.1832,0.1855,0.1813,0.1856,0.1859,0.1861,0.1912,0.1919,0.1925,0,0,0,0,0,0.1743,0.1749,0.1751,0.1755,0.1778,0.18,0.1804,0.1815,0.1816,0.1827,0.1836,0.182,0.1848,0.1833,0.1832,0.1856,0.1855,0.1858,0.1861,0.1909,0.1918,0.1925,0,0,0,0,0,0,0.1729,0.1751,0.1755,0.1765,0.1784,0.1803,0.1817,0.1819,0.1836,0.1837,0.1834,0.1834,0.1859,0.185,0.1834,0.1878,0.185,0.1853,0.1887,0.1895,0.1902,0.1905,0.1813,0,0,0,0,0,0.1727,0.1741,0.176,0.177,0.1785,0.1802,0.1811,0.1817,0.1832,0.184,0.1844,0.1853,0.187,0.1876,0.1883,0.1903,0.1912,0.1919,0.1926,0.1931,0.1935,0.1972,0.1982,0.1872,0.1872,0.1872,0,0,0.1723,0.1738,0.1745,0.1768,0.1789,0.1812,0.1809,0.1829,0.1848,0.1835,0.1866,0.1873,0.188,0.1909,0.1919,0.1905,0.1973,0.1935,0.194,0.194,0.1976,0.1987,0.1996,0.1874,0.1874,0.1873,0,0,0.1728,0.1742,0.176,0.178,0.1807,0.182,0.1827,0.1851,0.1867,0.189,0.1895,0.1918,0.1932,0.1951,0.1961,0.2006,0.2005,0.2009,0.2046,0.2082,0.2092,0.21,0.2145,0.2157,0.2014,0.2014,0.2014,0,0.1722,0.1746,0.1767,0.1793,0.1812,0.1827,0.185,0.1871,0.1893,0.1913,0.1905,0.1955,0.1955,0.2005,0.2025,0.2021,0.2044,0.2015,0.2091,0.2099,0.2107,0.2151,0.2163,0.2017,0.2017,0.2016,0.2016,0,0.1744,0.1765,0.1783,0.1822,0.1843,0.1867,0.1897,0.1922,0.1938,0.1955,0.2003,0.2015,0.2047,0.2055,0.2053,0.2114,0.2116,0.2094,0.207,0.2121,0.2164,0.2176,0.2021,0.202,0.2019,0.2018,0,0,0.1732,0.1785,0.1794,0.1815,0.186,0.188,0.1925,0.197,0.2009,0.2028,0.2079,0.2111,0.212,0.2132,0.214,0.217,0.2247,0.2159,0.216,0.2203,0.2345,0.2316,0.2326,0.2242,0.2244,0.2246,0.236,0,0.1746,0.1787,0.1814,0.1859,0.1886,0.1923,0.1966,0.2006,0.2046,0.2098,0.2123,0.2171,0.2151,0.2178,0.2206,0.224,0.2278,0.2219,0.2289,0.2292,0.2259,0.2338,0.2164,0.2249,0.2372,0.2374,0.2375,0,0.176,0.1789,0.1827,0.1884,0.1903,0.1929,0.2008,0.2051,0.2128,0.2162,0.2213,0.2236,0.2299,0.2264,0.2351,0.2317,0.2337,0.2353,0.2358,0.2317,0.2284,0.2214,0.2265,0.2394,0.2393,0.2391,0.239,0,0.1739,0.1798,0.1826,0.1846,0.1912,0.1943,0.1986,0.2066,0.2123,0.2212,0.2262,0.2323,0.2374,0.2404,0.2444,0.2408,0.2533,0.2484,0.2479,0.2478,0.2335,0.2317,0.2541,0.2541,0.2541,0.2541,0.254,0,0.1738,0.1769,0.1818,0.1836,0.1884,0.1938,0.2003,0.2065,0.2162,0.223,0.2294,0.2361,0.2413,0.2484,0.249,0.2539,0.2576,0.2508,0.2511,0.2351,0.2335,0.2451,0.2439,0.2545,0.2544,0.2543,0.2542,0,0.1713,0.1748,0.1784,0.1848,0.1871,0.1908,0.2006,0.2061,0.2163,0.2258,0.2294,0.2421,0.2512,0.2563,0.2636,0.2613,0.2649,0.2651,0.2469,0.2448,0.2556,0.2546,0.2658,0.2658,0.2658,0.2658,0.2658,0,0.1706,0.1718,0.1774,0.1799,0.1829,0.1889,0.1935,0.2044,0.2102,0.2284,0.2322,0.2467,0.2527,0.2647,0.2649,0.2681,0.269,0.2529,0.2415,0.258,0.2572,0.2561,0.2551,0.2258,0.2255,0.2253,0.225,0,0.1687,0.1701,0.1723,0.1766,0.1809,0.1857,0.1927,0.1971,0.2104,0.2187,0.2306,0.2381,0.252,0.2485,0.2554,0.2537,0.2506,0.2476,0.2714,0.2252,0.2211,0.22,0.2202,0.2227,0.2229,0.2231,0.2232,0.2233,0.1669,0.1664,0.1685,0.1723,0.1771,0.1806,0.1819,0.189,0.1962,0.2061,0.219,0.2243,0.2313,0.2322,0.2287,0.2278,0.2421,0.2308,0.2313,0.2322,0.2251,0.2212,0.2216,0.2218,0.222,0.2222,0.2223,0,0.1637,0.1624,0.1648,0.1673,0.169,0.1745,0.1796,0.1782,0.1806,0.1931,0.1997,0.1898,0.1921,0.1995,0.1954,0.1977,0.1921,0.1897,0.1799,0.1827,0.1851,0.175,0.1586,0.1583,0.1581,0.1578,0,0,0.1619,0.1595,0.1588,0.1577,0.1603,0.1594,0.1603,0.1593,0.1644,0.1644,0.1676,0.183,0.1946,0.1718,0.172,0.1647,0.1712,0.1593,0.2116,0.203,0.2049,0.2116,0.1998,0,0,0,0,0]},{"header":{"parameterUnit":"m.s-1","parameterCategory":2,"la1":30.2991,"la2":30.254,"lo1":-89.0895,"lo2":-89.0444,"dy":0.0017,"dx":0.0017,"nx":28,"ny":28,"refTime":"2024-04-22T03:00:00:Z","depth":"2","parameterNumber":3,"parameterNumberName":"V-component_of_CURRENTS"},"data":[0,0,0,0,0,0,0,0,0,0,0,0,0,0,0,0,0,0,0,0,0,0,0,0,0,0,0,0,0,0,0,0,0,0,0,0,0,0,0,0,0,0,0,0,0,0,0,0,0,0,0,0,0,0,0,0,0,0,-0.0095,-0.0095,0,-0.0172,-0.0173,-0.0174,-0.0248,-0.0249,-0.0249,-0.025,-0.0331,-0.0332,-0.0334,0,0,0,0,0,0,0,0,0,0,0,0,0,-0.0026,-0.0027,-0.0094,-0.0095,-0.0095,-0.0171,-0.0173,-0.0175,-0.0248,-0.0249,-0.0249,-0.025,-0.033,-0.0332,-0.0334,0,0,0,0,0,0,0,0,0,0,0,0,0,-0.008,-0.0028,-0.0094,-0.0138,-0.0142,-0.0171,-0.0173,-0.0175,-0.0248,-0.0249,-0.025,-0.025,-0.0329,-0.0332,-0.0334,-0.0336,0,0,-0.0342,-0.0343,0,0,0,0,0,0,0,0,-0.0077,-0.0083,-0.0131,-0.0135,-0.0139,-0.0197,-0.0178,-0.0227,-0.0248,-0.0213,-0.025,-0.0251,-0.0282,-0.0289,-0.0309,-0.034,-0.0343,-0.0342,-0.0344,-0.0345,-0.0346,0,0,0,0,0,0,0,-0.0073,-0.008,-0.013,-0.0131,-0.0136,-0.0158,-0.0167,-0.0188,-0.0247,-0.0216,-0.0221,-0.0221,-0.0285,-0.0306,-0.0311,-0.0345,-0.0342,-0.0345,-0.0346,-0.0347,-0.0406,-0.0406,0,0,0,0,0,0,-0.0051,-0.0076,-0.0128,-0.0132,-0.0103,-0.0158,-0.0168,-0.0182,-0.0247,-0.0256,-0.022,-0.0224,-0.0302,-0.0308,-0.0314,-0.0336,-0.0345,-0.0347,-0.0349,-0.0406,-0.0406,-0.0406,0,0,0,0,0,0,-0.005,-0.0056,-0.0125,-0.0101,-0.0111,-0.0158,-0.0173,-0.0183,-0.0212,-0.0248,-0.0259,-0.0239,-0.0302,-0.0311,-0.0339,-0.0339,-0.0349,-0.0351,-0.0406,-0.0406,-0.0406,-0.0368,0,0,0,0,0,0,-0.0048,-0.0055,-0.0058,-0.01,-0.0111,-0.0138,-0.0172,-0.0184,-0.0208,-0.0214,-0.0268,-0.0276,-0.0304,-0.0335,-0.0341,-0.0342,-0.0353,-0.0406,-0.0406,-0.0406,-0.0369,-0.0367,-0.0365,0,0,0,0,0,-0.0045,-0.0041,-0.0058,-0.0064,-0.0114,-0.0137,-0.0146,-0.0185,-0.0208,-0.0216,-0.0256,-0.0275,-0.034,-0.0337,-0.0345,-0.0346,-0.0406,-0.0406,-0.0406,-0.037,-0.0367,-0.0365,0,0,0,0,0,0,-0.0014,-0.0049,-0.0069,-0.0077,-0.0103,-0.0148,-0.0163,-0.0184,-0.0224,-0.0231,-0.0276,-0.0286,-0.0309,-0.0332,-0.0328,-0.0364,-0.0376,-0.0377,-0.0346,-0.0344,-0.0341,-0.0322,-0.0355,0,0,0,0,0,-0.0006,-0.0014,-0.0051,-0.0057,-0.0078,-0.0123,-0.0138,-0.0156,-0.0192,-0.0212,-0.0246,-0.0283,-0.0314,-0.0332,-0.0357,-0.0377,-0.0392,-0.0383,-0.0381,-0.0379,-0.0369,-0.0399,-0.0399,-0.0406,-0.0406,-0.0406,0,0,0.0001,-0.0014,-0.0022,-0.0051,-0.0088,-0.0096,-0.0137,-0.0154,-0.0156,-0.0211,-0.0236,-0.0273,-0.0316,-0.0339,-0.0352,-0.036,-0.0383,-0.0379,-0.0377,-0.0368,-0.0399,-0.0398,-0.0398,-0.0406,-0.0406,-0.0406,0,0,0.0029,-0.0007,-0.0004,-0.0023,-0.0051,-0.0075,-0.0078,-0.012,-0.0144,-0.0161,-0.0205,-0.0241,-0.0284,-0.0319,-0.0342,-0.0341,-0.0366,-0.0352,-0.0329,-0.0359,-0.0359,-0.0358,-0.0365,-0.0366,-0.0355,-0.0355,-0.0355,0,0.0044,0.004,-0.0005,-0.0003,-0.0012,-0.0064,-0.0057,-0.0086,-0.0122,-0.0137,-0.0159,-0.0232,-0.0272,-0.0308,-0.0315,-0.0335,-0.0349,-0.0336,-0.0355,-0.0356,-0.0356,-0.0363,-0.0365,-0.0353,-0.0353,-0.0353,-0.0353,0,0.0072,0.007,0.0063,0.0047,0.0035,0.003,-0.0008,-0.0024,-0.0057,-0.0081,-0.012,-0.0181,-0.0224,-0.0249,-0.0286,-0.0313,-0.032,-0.0345,-0.0359,-0.0353,-0.0361,-0.0363,-0.035,-0.0351,-0.0351,-0.0352,0,0,0.0098,0.0089,0.0086,0.0093,0.0063,0.0059,0.0046,0.0022,0.0018,-0.0031,-0.0044,-0.0119,-0.0157,-0.0186,-0.0241,-0.0279,-0.0301,-0.0314,-0.0316,-0.0314,-0.0351,-0.0359,-0.0362,-0.0334,-0.0334,-0.0334,-0.0352,0,0.0128,0.0162,0.0143,0.0165,0.0169,0.0126,0.0122,0.01,0.0064,0.004,-0.0036,-0.0068,-0.0132,-0.0155,-0.0204,-0.0276,-0.0306,-0.0293,-0.0364,-0.0365,-0.0368,-0.0365,-0.0349,-0.0364,-0.0354,-0.0355,-0.0355,0,0.0159,0.0179,0.0214,0.0227,0.022,0.023,0.0212,0.0208,0.0157,0.0125,0.0073,0.0018,-0.005,-0.0103,-0.0211,-0.02,-0.0267,-0.0325,-0.0327,-0.0347,-0.0377,-0.0373,-0.0368,-0.0358,-0.0358,-0.0358,-0.0358,0,0.0205,0.0227,0.0263,0.0264,0.0267,0.0272,0.0269,0.0235,0.0241,0.018,0.0181,0.0085,0.0056,-0.0053,-0.0172,-0.0193,-0.028,-0.0322,-0.0387,-0.0387,-0.0393,-0.0393,-0.0388,-0.0388,-0.0388,-0.0388,-0.0388,0,0.0247,0.0269,0.0289,0.0306,0.0345,0.0327,0.0359,0.0329,0.0317,0.0344,0.0234,0.0236,0.0066,-0.0004,-0.0134,-0.0255,-0.0247,-0.0374,-0.0395,-0.0378,-0.0377,-0.0392,-0.0392,-0.0389,-0.0389,-0.0388,-0.0388,0,0.0285,0.0295,0.0341,0.0364,0.0371,0.0399,0.043,0.0458,0.0426,0.046,0.045,0.0362,0.0259,0.0099,-0.0064,-0.0181,-0.0314,-0.0357,-0.0314,-0.0331,-0.0411,-0.0409,-0.0436,-0.0436,-0.0436,-0.0437,-0.0437,0,0.0304,0.0336,0.0393,0.0429,0.0439,0.048,0.0514,0.0505,0.0548,0.0549,0.058,0.0493,0.0431,0.0188,-0.004,-0.0256,-0.0289,-0.0366,-0.0417,-0.0399,-0.0417,-0.0415,-0.0412,-0.0404,-0.0404,-0.0404,-0.0404,0,0.0346,0.0371,0.0419,0.0502,0.055,0.0611,0.0664,0.0711,0.0722,0.0742,0.0759,0.0706,0.0476,0.0247,-0.0043,-0.0194,-0.034,-0.0373,-0.0364,-0.0396,-0.0371,-0.0388,-0.0387,-0.0404,-0.0404,-0.0404,-0.0404,-0.0404,0.0374,0.043,0.0508,0.0583,0.065,0.0736,0.0795,0.0847,0.091,0.0941,0.0898,0.0822,0.0565,0.0177,-0.0074,-0.033,-0.0337,-0.0429,-0.0429,-0.0428,-0.0423,-0.0401,-0.0436,-0.0436,-0.0436,-0.0436,-0.0437,0,0.042,0.0495,0.0581,0.0683,0.0773,0.0793,0.0897,0.0941,0.1011,0.103,0.1016,0.0782,0.0512,0.0233,-0.0151,-0.0392,-0.042,-0.0457,-0.0439,-0.0438,-0.0437,-0.0432,-0.0448,-0.0449,-0.0449,-0.045,0,0,0.0451,0.0555,0.0613,0.077,0.0845,0.0959,0.1022,0.1063,0.1093,0.1087,0.1053,0.0944,0.0601,0.0329,-0.0005,-0.0217,-0.0271,-0.0263,-0.0231,-0.0171,-0.0166,-0.0403,-0.0392,0,0,0,0,0]}],[{"header":{"parameterUnit":"m.s-1","parameterCategory":2,"la1":30.2991,"la2":30.254,"lo1":-89.0895,"lo2":-89.0444,"dy":0.0017,"dx":0.0017,"nx":28,"ny":28,"refTime":"2024-04-22T03:00:00:Z","depth":"4","parameterNumber":2,"parameterNumberName":"U-component_of_CURRENTS"},"data":[0,0,0,0,0,0,0,0,0,0,0,0,0,0,0,0,0,0,0,0,0,0,0,0,0,0,0,0,0,0,0,0,0,0,0,0,0,0,0,0,0,0,0,0,0,0,0,0,0,0,0,0,0,0,0,0,0,0,0.0947,0.0948,0,0.1041,0.1042,0.1043,0.1105,0.1105,0.1105,0.1106,0.1174,0.1175,0.1176,0,0,0,0,0,0,0,0,0,0,0,0,0,0.083,0.0831,0.0947,0.0948,0.0949,0.1041,0.1042,0.1044,0.1104,0.1105,0.1106,0.1106,0.1173,0.1175,0.1176,0,0,0,0,0,0,0,0,0,0,0,0,0,0.0897,0.0832,0.0946,0.0992,0.0997,0.1041,0.1043,0.1044,0.1104,0.1105,0.1106,0.1106,0.1173,0.1175,0.1177,0.1175,0,0,0.1183,0.1184,0,0,0,0,0,0,0,0,0.0893,0.0901,0.0984,0.0989,0.0994,0.1063,0.1026,0.1087,0.1104,0.1062,0.1106,0.1107,0.1134,0.114,0.1155,0.1178,0.1181,0.1183,0.1184,0.1185,0.1186,0,0,0,0,0,0,0,0.0888,0.0897,0.0983,0.0985,0.0991,0.1011,0.1021,0.1038,0.1092,0.1066,0.1071,0.1083,0.1137,0.1152,0.1157,0.1182,0.1183,0.1185,0.1186,0.1187,0.1287,0.1288,0,0,0,0,0,0,0.0878,0.0893,0.098,0.0986,0.0946,0.1012,0.1024,0.1039,0.1092,0.1102,0.1082,0.1086,0.1149,0.1154,0.1159,0.1239,0.1185,0.1187,0.1188,0.1285,0.1287,0.1288,0,0,0,0,0,0,0.0875,0.0885,0.0976,0.0942,0.0955,0.1014,0.1031,0.1041,0.1084,0.1105,0.1114,0.1119,0.1149,0.1156,0.1203,0.1239,0.1188,0.119,0.1283,0.1286,0.1288,0.1348,0,0,0,0,0,0,0.0871,0.0883,0.0904,0.0942,0.0957,0.1025,0.103,0.1042,0.1089,0.1095,0.1139,0.1144,0.1151,0.12,0.1205,0.1241,0.1191,0.1282,0.1284,0.1287,0.1344,0.1352,0.1358,0,0,0,0,0,0.0866,0.0884,0.0904,0.0915,0.0979,0.1026,0.1037,0.1079,0.1091,0.1119,0.1148,0.1144,0.1221,0.1203,0.1209,0.1246,0.128,0.1284,0.1287,0.1341,0.135,0.1358,0,0,0,0,0,0,0.0844,0.0893,0.0916,0.0949,0.0996,0.1038,0.1068,0.1093,0.1138,0.1149,0.1163,0.1171,0.1227,0.1225,0.1205,0.1282,0.125,0.1254,0.1289,0.1298,0.1305,0.1292,0.1193,0,0,0,0,0,0.0848,0.0878,0.0927,0.0959,0.0983,0.103,0.1059,0.109,0.1128,0.1151,0.1181,0.1209,0.1239,0.126,0.1285,0.1324,0.132,0.1351,0.1358,0.1365,0.1358,0.1387,0.1396,0.1299,0.1299,0.1299,0,0,0.0847,0.0881,0.0898,0.0957,0.0997,0.1039,0.1051,0.1104,0.1142,0.1149,0.1213,0.1239,0.1256,0.1307,0.1331,0.1314,0.1393,0.1369,0.1374,0.1364,0.1392,0.1401,0.1409,0.1301,0.1301,0.13,0,0,0.0857,0.0894,0.0924,0.0966,0.1033,0.1062,0.1082,0.1142,0.1176,0.1233,0.1251,0.1294,0.1342,0.1363,0.1376,0.1433,0.1432,0.1452,0.148,0.1509,0.1517,0.1524,0.1542,0.155,0.1455,0.1455,0.1455,0,0.0856,0.0906,0.0942,0.0986,0.1025,0.1073,0.1118,0.1156,0.1225,0.1252,0.1262,0.1347,0.1363,0.1417,0.1442,0.1449,0.1466,0.1447,0.1518,0.1525,0.1531,0.1548,0.1556,0.1458,0.1458,0.1458,0.1457,0,0.0889,0.094,0.0963,0.1033,0.1076,0.1126,0.1178,0.1226,0.1267,0.1303,0.1376,0.1407,0.1455,0.1474,0.1476,0.1537,0.1536,0.1526,0.1495,0.1544,0.1559,0.1566,0.1463,0.1462,0.1461,0.146,0,0,0.0854,0.0965,0.0975,0.1021,0.1109,0.1143,0.1205,0.1272,0.1312,0.1378,0.1433,0.149,0.1517,0.1532,0.1554,0.1577,0.1638,0.1577,0.1577,0.1591,0.1709,0.1622,0.1622,0.1653,0.1654,0.1655,0.1705,0,0.0875,0.0961,0.101,0.109,0.114,0.12,0.1252,0.1315,0.1367,0.1428,0.1471,0.1532,0.1537,0.1575,0.1604,0.1634,0.1659,0.1625,0.166,0.1661,0.1575,0.1627,0.166,0.171,0.1712,0.1713,0.1714,0,0.0889,0.0949,0.1034,0.1131,0.1157,0.1207,0.1293,0.1349,0.1431,0.1474,0.1539,0.1578,0.1644,0.1631,0.1704,0.1692,0.1705,0.1714,0.1716,0.1613,0.1587,0.1648,0.1727,0.1726,0.1725,0.1724,0.1723,0,0.0848,0.0959,0.1029,0.1066,0.118,0.1223,0.1282,0.1366,0.1417,0.151,0.1558,0.1634,0.1691,0.1722,0.1758,0.1744,0.182,0.1798,0.1728,0.1722,0.1756,0.1748,0.1833,0.1833,0.1833,0.1833,0.1833,0,0.0843,0.0895,0.102,0.1056,0.1132,0.1214,0.1293,0.1354,0.1448,0.1511,0.1588,0.1641,0.172,0.1774,0.1783,0.1785,0.1846,0.1736,0.1731,0.1782,0.1777,0.1762,0.1753,0.1835,0.1834,0.1834,0.1834,0,0.0787,0.0872,0.0954,0.108,0.112,0.1174,0.1301,0.1349,0.1448,0.1532,0.1569,0.1674,0.1743,0.1798,0.1854,0.1814,0.1818,0.1799,0.1861,0.1858,0.1691,0.1685,0.1717,0.1714,0.1712,0.171,0.1709,0,0.076,0.0808,0.0956,0.1002,0.1064,0.116,0.1223,0.1339,0.1387,0.1536,0.1562,0.1673,0.1732,0.1743,0.18,0.1815,0.1793,0.1784,0.172,0.1688,0.1681,0.1678,0.1675,0.1705,0.1705,0.1704,0.1704,0,0.071,0.0782,0.0854,0.0958,0.1034,0.1112,0.1206,0.1235,0.1368,0.147,0.153,0.1574,0.1649,0.1686,0.172,0.172,0.1782,0.176,0.1763,0.1703,0.1675,0.1669,0.1668,0.1696,0.1697,0.1698,0.1698,0,0.0661,0.0715,0.0823,0.0907,0.0989,0.1037,0.1102,0.1173,0.1241,0.1399,0.1418,0.1534,0.1636,0.1638,0.1664,0.1669,0.1635,0.1576,0.1589,0.1598,0.1536,0.148,0.1441,0,0,0,0,0,0.0603,0.0682,0.0761,0.0852,0.0923,0.0975,0.1077,0.1141,0.127,0.1282,0.1347,0.1409,0.1466,0.1517,0.1496,0.1602,0.1634,0.1571,0.157,0.1654,0.1662,0.16,0,0,0,0,0,0,0.057,0.0661,0.0741,0.0779,0.0825,0.0897,0.096,0.1051,0.1059,0.1193,0.1224,0.1331,0.1394,0.1465,0.1471,0.1488,0.1461,0.1644,0.164,0.1649,0.1657,0.1664,0.1603,0,0,0,0,0]},{"header":{"parameterUnit":"m.s-1","parameterCategory":2,"la1":30.2991,"la2":30.254,"lo1":-89.0895,"lo2":-89.0444,"dy":0.0017,"dx":0.0017,"nx":28,"ny":28,"refTime":"2024-04-22T03:00:00:Z","depth":"4","parameterNumber":3,"parameterNumberName":"V-component_of_CURRENTS"},"data":[0,0,0,0,0,0,0,0,0,0,0,0,0,0,0,0,0,0,0,0,0,0,0,0,0,0,0,0,0,0,0,0,0,0,0,0,0,0,0,0,0,0,0,0,0,0,0,0,0,0,0,0,0,0,0,0,0,0,0.0248,0.0247,0,0.0163,0.0162,0.0161,0.0128,0.0129,0.0129,0.0129,0.0083,0.0082,0.008,0,0,0,0,0,0,0,0,0,0,0,0,0,0.0338,0.0337,0.0248,0.0247,0.0246,0.0163,0.0162,0.0161,0.0128,0.0129,0.0129,0.0129,0.0083,0.0082,0.008,0,0,0,0,0,0,0,0,0,0,0,0,0,0.0282,0.0337,0.0248,0.0219,0.0215,0.0163,0.0162,0.016,0.0128,0.0129,0.0129,0.0129,0.0084,0.0082,0.008,0.0063,0,0,0.0074,0.0073,0,0,0,0,0,0,0,0,0.0285,0.0279,0.0224,0.0221,0.0217,0.0155,0.0176,0.0129,0.0128,0.0163,0.0129,0.0129,0.011,0.0106,0.009,0.0061,0.0059,0.0073,0.0072,0.0071,0.0071,0,0,0,0,0,0,0,0.0289,0.0282,0.0216,0.0223,0.0218,0.0194,0.0187,0.0167,0.0138,0.016,0.0157,0.0145,0.0108,0.0092,0.0089,0.0058,0.0073,0.0072,0.007,0.007,0.002,0.002,0,0,0,0,0,0,0.0299,0.0286,0.0218,0.0213,0.0251,0.0193,0.0184,0.0176,0.0137,0.0131,0.0145,0.0144,0.0096,0.0091,0.0087,0.008,0.0071,0.0069,0.0068,0.002,0.002,0.002,0,0,0,0,0,0,0.0302,0.0294,0.0222,0.0246,0.0235,0.0191,0.0181,0.0174,0.0158,0.0125,0.012,0.0137,0.0096,0.009,0.0074,0.0077,0.0068,0.0067,0.0021,0.002,0.002,0.0055,0,0,0,0,0,0,0.0305,0.0296,0.0294,0.0247,0.0234,0.0195,0.0181,0.0172,0.015,0.0148,0.0117,0.0112,0.0095,0.0078,0.0072,0.0074,0.0065,0.0021,0.002,0.002,0.0054,0.0057,0.0058,0,0,0,0,0,0.0308,0.0305,0.0295,0.0286,0.0233,0.0195,0.0187,0.0156,0.015,0.0144,0.0125,0.0113,0.0073,0.0076,0.007,0.0071,0.0021,0.0021,0.002,0.0054,0.0056,0.0058,0,0,0,0,0,0,0.0332,0.0299,0.0288,0.0272,0.0239,0.019,0.018,0.0158,0.0136,0.0138,0.0111,0.0106,0.0091,0.0076,0.008,0.0056,0.0045,0.0044,0.0072,0.0074,0.0076,0.0088,0.0063,0,0,0,0,0,0.0339,0.0335,0.0292,0.0278,0.0267,0.0225,0.0206,0.0184,0.0156,0.0145,0.0123,0.0103,0.0084,0.0076,0.0055,0.0044,0.002,0.004,0.0042,0.0044,0.0049,0.0017,0.0017,0.002,0.002,0.002,0,0,0.0345,0.0324,0.0321,0.0284,0.0259,0.0242,0.0215,0.0188,0.0177,0.0145,0.0131,0.0107,0.0081,0.0067,0.006,0.0057,0.0029,0.0044,0.0046,0.005,0.0017,0.0017,0.0016,0.002,0.002,0.002,0,0,0.035,0.0337,0.0336,0.0314,0.0278,0.0254,0.0249,0.0204,0.0192,0.017,0.0147,0.0128,0.0097,0.008,0.0069,0.0069,0.0038,0.006,0.0083,0.0052,0.0052,0.0051,0.0014,0.0009,0.0064,0.0064,0.0064,0,0.0358,0.0347,0.0327,0.0315,0.0302,0.0264,0.0255,0.0235,0.019,0.0184,0.0174,0.0126,0.0105,0.009,0.009,0.0075,0.0047,0.0078,0.0055,0.0054,0.0053,0.0015,0.001,0.0066,0.0066,0.0066,0.0065,0,0.036,0.0351,0.0348,0.033,0.0314,0.0298,0.0271,0.0257,0.024,0.0216,0.0195,0.0161,0.0135,0.0123,0.0107,0.0089,0.0068,0.0059,0.0052,0.0055,0.0014,0.0008,0.0068,0.0068,0.0067,0.0067,0,0,0.0376,0.0356,0.0355,0.0352,0.0322,0.0309,0.0302,0.0282,0.028,0.0243,0.0234,0.0201,0.0179,0.0164,0.0137,0.0113,0.0078,0.0086,0.0084,0.0054,0.0,-0.002,-0.0029,0.0063,0.0062,0.0061,-0.0027,0,0.0383,0.0374,0.0363,0.0359,0.0353,0.0332,0.0331,0.031,0.0292,0.0274,0.0241,0.0219,0.0196,0.0182,0.0155,0.0095,0.0065,0.0103,-0.0003,-0.0006,-0.002,-0.0035,0.0059,-0.0032,-0.0033,-0.0034,-0.0035,0,0.0386,0.0382,0.0381,0.0378,0.0376,0.0373,0.037,0.0362,0.0336,0.0323,0.0297,0.026,0.0218,0.0197,0.0106,0.0128,0.007,0.0025,0.002,-0.0013,-0.0036,-0.0036,-0.0046,-0.0045,-0.0044,-0.0044,-0.0043,0,0.0402,0.0395,0.04,0.0395,0.0385,0.0392,0.0391,0.0376,0.0377,0.035,0.0339,0.0286,0.0249,0.0178,0.0081,0.009,-0.0028,-0.0029,-0.0102,-0.0105,-0.0075,-0.0073,-0.0093,-0.0093,-0.0093,-0.0092,-0.0092,0,0.0404,0.0407,0.041,0.0409,0.0428,0.0415,0.0433,0.0426,0.0414,0.0412,0.0365,0.0338,0.0242,0.0159,0.0081,-0.0035,-0.0032,-0.0104,-0.0129,-0.006,-0.0055,-0.008,-0.0077,-0.0096,-0.0095,-0.0094,-0.0094,0,0.0405,0.0405,0.0413,0.0422,0.0431,0.0443,0.0462,0.0471,0.0459,0.0451,0.044,0.0364,0.0256,0.015,0.0019,-0.004,-0.0144,-0.0186,-0.0114,-0.0133,-0.0199,-0.0194,-0.0271,-0.0273,-0.0274,-0.0275,-0.0276,0,0.0396,0.04,0.0428,0.0443,0.0448,0.0471,0.049,0.0494,0.0501,0.0462,0.0452,0.0348,0.0285,0.009,-0.0022,-0.0182,-0.0199,-0.025,-0.0211,-0.0201,-0.0218,-0.021,-0.0203,-0.0278,-0.0278,-0.0278,-0.0279,0,0.0379,0.0396,0.0406,0.0446,0.0472,0.0504,0.0526,0.0532,0.0528,0.0523,0.0458,0.0353,0.0223,0.008,-0.0053,-0.0162,-0.0211,-0.0262,-0.026,-0.0224,-0.021,-0.0224,-0.0215,-0.0283,-0.0282,-0.0282,-0.0282,0,0.0365,0.0376,0.0399,0.0435,0.0477,0.0508,0.0528,0.0528,0.0532,0.0497,0.047,0.034,0.0268,0.0087,-0.0034,-0.0148,-0.0167,-0.0182,-0.0184,-0.0181,-0.0126,-0.0091,-0.0155,0,0,0,0,0,0.0335,0.0346,0.0384,0.0421,0.0472,0.0502,0.0536,0.055,0.0551,0.0514,0.0495,0.0378,0.0189,0.0104,-0.0014,-0.0065,-0.0196,-0.0207,-0.0216,-0.0306,-0.0301,-0.0253,0,0,0,0,0,0,0.0304,0.0332,0.0368,0.0408,0.0441,0.0493,0.052,0.0526,0.0507,0.0495,0.0397,0.0359,0.0173,0.0258,-0.0013,-0.005,-0.0069,-0.0292,-0.0294,-0.0309,-0.0305,-0.0301,-0.0249,0,0,0,0,0]}]]